Location: Songkhla
(7.2000°N, 100.6000°E)
Time: 03:25:54
(UTC+07:00)

BRICSAT 2 - Pass Details

Date: 26 June 2021
Orbit: 295 x 638 km, 28.5° (Epoch: 28 July)

Event Time Altitude Azimuth Distance (km) Brightness Sun altitude
Rises 17:17:06 0° 319° (NW) 2,106 ? 17.4°
Reaches altitude 10° 17:19:19 10° 336° (NNW) 1,324 ? 16.9°
Maximum altitude 17:21:41 21° 29° (NNE) 913 ? 16.3°
Drops below altitude 10° 17:24:18 10° 81° (E) 1,468 ? 15.7°
Sets 17:26:55 0° 97° (E) 2,417 ? 15.1°
